Location: Perryvale
(54.4667°N, 113.3833°W)
Time: 10:56:51
(UTC+00:00)

Vanguard 3 - Pass Details

Date: 22 May 2024
Orbit: 509 x 3231 km, 33.3° (Epoch: 16 June)

Event Time Altitude Azimuth Distance (km) Brightness Sun altitude
Rises 07:01:36 0° 260° (W) 5,659 11.4 -14.8°
Reaches altitude 10° 07:05:53 10° 249° (WSW) 5,042 11.0 -14.8°
Maximum altitude 07:17:14 25° 202° (SSW) 4,620 10.4 -15.0°
Enters shadow 07:27:42 15° 164° (SSE) 5,672 10.8 -15.0°
